This is the latest recevied weather packets stored in our database for station/object IV3CGM-13. If no packets are shown the sender has not sent any weather packets the latest 10 day(s).
| Time | Temp. | Humidity | Pressure | Rain* | Wind** | Luminosity | Snow |
|---|---|---|---|---|---|---|---|
| 1788560590 | 22.78° C | 72% | 1017.6 hPa | 0 mm | - | 0 W/m² | - |
| 1788559903 | 22.78° C | 76% | 1017.5 hPa | 0 mm | - | 0 W/m² | - |
| 1788559215 | 22.78° C | 75% | 1017.6 hPa | 0 mm | - | 0 W/m² | - |
| 1788558528 | 22.78° C | 74% | 1017.6 hPa | 0 mm | - | 0 W/m² | - |
| 1788557841 | 21.67° C | 80% | 1017.6 hPa | 0 mm | - | 0 W/m² | - |
| 1788557165 | 21.67° C | 79% | 1017.6 hPa | 0 mm | - | 0 W/m² | - |
| 1788556464 | 21.67° C | 81% | 1017.6 hPa | 0 mm | - | 0 W/m² | - |
| 1788555777 | 21.67° C | 82% | 1017.7 hPa | 0 mm | - | 0 W/m² | - |
| 1788555090 | 21.67° C | 82% | 1017.8 hPa | 0 mm | - | 0 W/m² | - |
| 1788554401 | 21.67° C | 80% | 1017.8 hPa | 0 mm | - | 0 W/m² | - |
| 1788553665 | 21.67° C | 77% | 1017.9 hPa | 0 mm | - | 0 W/m² | - |
| 1788552964 | 21.67° C | 81% | 1018 hPa | 0 mm | - | 0 W/m² | - |
| 1788552276 | 21.67° C | 78% | 1018 hPa | 0 mm | - | 0 W/m² | - |
| 1788551589 | 22.22° C | 78% | 1018 hPa | 0 mm | - | 0 W/m² | - |
| 1788550902 | 22.22° C | 77% | 1018 hPa | 0 mm | - | 0 W/m² | - |
| 1788550165 | 22.22° C | 78% | 1018.1 hPa | 0 mm | - | 0 W/m² | - |
| 1788549464 | 22.22° C | 79% | 1018.1 hPa | 0 mm | - | 0 W/m² | - |
| 1788548776 | 22.22° C | 78% | 1018.1 hPa | 0 mm | - | 0 W/m² | - |
| 1788548088 | 22.78° C | 78% | 1018.1 hPa | 0 mm | - | 0 W/m² | - |
| 1788547401 | 22.78° C | 78% | 1018.1 hPa | 0 mm | - | 0 W/m² | - |
| 1788546664 | 22.78° C | 76% | 1018.1 hPa | 0 mm | - | 0 W/m² | - |
| 1788545964 | 22.78° C | 76% | 1017.9 hPa | 0 mm | - | 0 W/m² | - |
| 1788545276 | 22.78° C | 77% | 1017.9 hPa | 0 mm | - | 0 W/m² | - |
| 1788544589 | 23.33° C | 75% | 1017.8 hPa | 0 mm | - | 1 W/m² | - |
| 1788543901 | 23.33° C | 74% | 1017.6 hPa | 0 mm | - | 3 W/m² | - |
* Rain latest hour (hover to see other rain measurements)
** Current wind speed in m/s (hover to see current wind gust speed)